Flag for China Weather past 2 weeks in Guangzhou, Guangdong, China

Now
90 °F

Scattered clouds.


Feels Like: 98 °F
Forecast: 77 / 92 °F
Wind: 1 mph from North

Location: Canton Airport

Current Time: Aug 2, 2015 at 11:22:10 AM

Latest Report: Aug 2, 2015 at 11:00 AM


Visibility: N/A

Pressure: 29.89 "Hg

Humidity: 59%

Dew point: 73 °F

Location of GuangzhouLocation

Historic Weather in Guangzhou — Graph

°F

Guangzhou temperature yesterday

Maximum temperature yesterday: 93 °F (at 2:30 PM)
Minimum temperature yesterday: 79 °F (at 4:30 AM)
Average temperature yesterday: 86 °F

Past Weeks' High & Low Weather Summary

 TemperatureHumidityPressure
High95 °F (Jul 19, 2:00 PM)100% (Jul 18, 5:00 PM)29.92 "Hg (Jul 18, 5:00 PM)
Low75 °F (Jul 28, 4:00 PM)46% (Jul 31, 5:00 PM)29.50 "Hg (Jul 19, 3:00 PM)
Average83 °F84%29.74 "Hg
* Reported Jul 18 10:00 AM — Aug 2 10:00 AM, Guangzhou, Weather by CustomWeather, © 2015

Note: Actual official high and low records may vary slightly from our data, if they occured in-between our weather recording intervals... More about our weather records

Advertising

Guangzhou weather history for previous 24 hours

 ConditionsComfort  
Time TempWeatherWind HumidityBarometerVisibility
10:00 AM
Sun, Aug 2
88 °FScattered clouds.3 mph66%29.89 "HgN/A
9:30 AM86 °FScattered clouds.6 mph70%29.89 "HgN/A
9:00 AM84 °FScattered clouds.3 mph79%29.89 "HgN/A
8:30 AM84 °FScattered clouds.3 mph74%29.89 "Hg4 mi
8:00 AM82 °FPassing clouds.3 mph84%29.89 "Hg4 mi
7:30 AM81 °FPassing clouds.3 mph89%29.89 "Hg4 mi
7:00 AM81 °FPassing clouds.3 mph89%29.89 "Hg4 mi
6:30 AM79 °FPassing clouds.6 mph94%29.89 "HgN/A
6:00 AM81 °FPassing clouds.3 mph89%29.86 "HgN/A
5:30 AM81 °FPassing clouds.3 mph89%29.86 "HgN/A
5:00 AM81 °FClear.1 mph89%29.86 "Hg10 mi
4:30 AM81 °FClear.3 mph89%29.86 "Hg10 mi
4:00 AM81 °FClear.3 mph89%29.86 "Hg10 mi
3:30 AM81 °FClear.3 mph89%29.86 "Hg10 mi
3:00 AM81 °FPassing clouds.3 mph89%29.86 "HgN/A
2:30 AM81 °FClear.6 mph89%29.86 "Hg10 mi
2:00 AM82 °FClear.3 mph84%29.86 "Hg10 mi
1:30 AM82 °FClear.3 mph84%29.86 "Hg10 mi
1:00 AM82 °FClear.3 mph84%29.86 "Hg10 mi
12:30 AM84 °FClear.3 mph79%29.86 "Hg10 mi
12:00 AM84 °FPassing clouds.6 mph74%29.86 "HgN/A
11:30 PM
Sat, Aug 1
84 °FPassing clouds.6 mph74%29.86 "HgN/A
11:00 PM84 °FPassing clouds.3 mph74%29.86 "HgN/A
10:30 PM84 °FPassing clouds.3 mph74%29.86 "HgN/A
10:00 PM84 °FPassing clouds.1 mph74%29.86 "HgN/A
9:30 PM86 °FPassing clouds.3 mph70%29.83 "HgN/A
9:00 PM86 °FPassing clouds.3 mph70%29.83 "HgN/A
8:30 PM86 °FClear.6 mph70%29.80 "Hg10 mi
8:00 PM86 °FPassing clouds.8 mph70%29.80 "HgN/A
7:30 PM86 °FClear.6 mph70%29.80 "Hg10 mi
7:00 PM90 °FPassing clouds.6 mph63%29.77 "HgN/A
6:30 PM90 °FPassing clouds.6 mph63%29.77 "HgN/A
6:00 PM91 °FPassing clouds.6 mph56%29.77 "HgN/A
5:30 PM91 °FScattered clouds.6 mph52%29.77 "HgN/A
5:00 PM93 °FScattered clouds.3 mph53%29.77 "HgN/A
4:30 PM93 °FScattered clouds.3 mph56%29.80 "HgN/A
4:00 PM93 °FScattered clouds.6 mph56%29.80 "HgN/A
3:30 PM93 °FScattered clouds.3 mph53%29.80 "HgN/A
3:00 PM91 °FPartly sunny.6 mph59%29.80 "HgN/A
2:30 PM93 °FPartly sunny.6 mph53%29.83 "HgN/A
2:00 PM91 °FPartly sunny.3 mph59%29.83 "HgN/A
1:30 PM91 °FPartly sunny.3 mph59%29.83 "HgN/A
1:00 PM90 °FPartly sunny.3 mph63%29.86 "HgN/A
12:30 PM88 °FPartly sunny.1 mph66%29.86 "HgN/A
12:00 PM88 °FPartly sunny.1 mph66%29.86 "HgN/A
11:30 AM88 °FPartly sunny.3 mph70%29.86 "HgN/A
11:00 AM88 °FPartly sunny.1 mph70%29.86 "HgN/A
Weather by CustomWeather, © 2015

See weather overviewHow to use our weather pages